VRMMFSIA

Guest
Details From VRMM - Male Intl
To FSIA - Seychelles Intl
Flight Number -
Tags Generated
Created
Modified
Stats Distance 1,205 nm / 2,232 km
Max Altitude 0 ft / 0 m
Waypoints 3
Social Downloads 3
Likes 0
Share VATSIM

Download

Looking for another format? Having issues loading an existing format? Contact us
Advertisement - Login to hide

Notes

Generated

Route

VRMM SEY14 FSIA

ID Type Via Altitude Latitude Longitude Leg Dist Tot Dist Heading (true) Name
O VRMM APT - 0 ft / 0 m 4.20629˚ 73.52889˚ - 0 nm - -
SEY14 FIX - 0 ft / 0 m -4.65346˚ 55.53375˚ 1203 nm 1203 nm 244° / 244° -
O FSIA APT - 0 ft / 0 m -4.66663˚ 55.51080˚ 1 nm 1205 nm 240° / 240° -

Altitude Profile

Advertisement - Login to hide

Weather


0- 5 10 15 20 25 30 35+ Temperature / ° C

Clouds and Precipitation
Forecast for 2018-05-24 00:00 UTC. Updated 2 hours ago

Ground ~20,000 ft ~40,000 ft Winds

VRMM

Details ICAO VRMM (MLE)
Name MALE INTL
Region Maldives
Timezone Indian/Maldives (UTC+5.0)
Stats Elevation 6 ft / 2 m (AMSL)
Location 4.191832° 73.529128°
Runways 1
Magnetic Variation 2.801° W

METAR

VRMM 240000Z 28017KT 9999 FEW017TCU BKN120 29/25 Q1007 TEMPO FEW018CB

Decode

TAF

TAF VRMM 232300Z 2400/2506 26018KT 9000 FEW017TCU TEMPO 2400/2406 27018G38KT 4000 SHRA FEW017CB BKN100

Decode

Departure Runways

ID Width Length Bearing (true) Bearing (mag) Surface Threshold Offset Overrun Length
18 148 ft / 45 m 10,556 ft / 3,218 m 179.06° 181.86° Asphalt 328 ft / 100 m 201 ft / 61 m
36 148 ft / 45 m 10,556 ft / 3,218 m 359.06° 1.86° Asphalt 952 ft / 290 m 238 ft / 73 m

FSIA

Details ICAO FSIA (SEZ)
Name SEYCHELLES INTL
Region Seychelles
Timezone Unknown (UTC+0.0)
Stats Elevation 10 ft / 3 m (AMSL)
Location -4.674378° 55.521829°
Runways 1
Magnetic Variation 5.030° W

METAR

FSIA 240000Z AUTO 14008KT //// R13///// // SCT016/// SCT048/// OVC160/// 27/25 Q1009

Decode

TAF

Not found

Destination Runways

ID Width Length Bearing (true) Bearing (mag) Surface Threshold Offset Overrun Length
13 151 ft / 46 m 9,813 ft / 2,991 m 125.18° 130.21° Concrete 1,001 ft / 305 m 279 ft / 85 m
31 151 ft / 46 m 9,813 ft / 2,991 m 305.18° 310.21° Concrete 1,001 ft / 305 m 115 ft / 35 m

Approach Navaids

Runway Type Ident Frequency Range Bearing (true) Bearing (mag) Slope Elevation
31 Localiser SIA 110.30 MHz 18 nm / 33 km 305.21° 310.24° - 10 ft / 3 m (AMSL)
31 Glidescope SIA 110.30 MHz 10 nm / 19 km 305.18° 310.21° 3.00° 10 ft / 3 m (AMSL)
31 DME SIA 110.30 MHz 18 nm / 33 km - - - 10 ft / 3 m (AMSL)

Popular Alternatives